Terug naar catalogus

PRAETORIAN SDA_507

ActiefPO
NORAD 100065·PAYLOAD·🇺🇸 United States

Gelanceerd Jul 16, 2026 vanaf Vandenberg Space Force Base

Loading…

Volgende Passages (komende 24 uur)

TLE

VersSource: Space-Track

Epoch: Sep 14, 2026, 01:11 UTC

1 A0065U 26163G   26257.04955796  .00000146  00000-0  11719-3 0  9999
2 A0065  81.4804 255.8812 0013907  58.4031 301.8482 13.85381957  8206

Volg PRAETORIAN SDA_507 in realtime met AllMySat

Download on the App Store